Weather History for Budapest Ferihegy, Hungary

Change the Weather History Date:

Monday, January 6, 2014

  Actual Average Record
Temperature  
Mean Temperature 42 °F -  
Max Temperature 53 °F 36 °F 53 °F (2014)
Min Temperature 32 °F 22 °F 8 °F (2004)
Degree Days  
Heating Degree Days 22    
Moisture  
Dew Point 42 °F    
Average Humidity 97    
Maximum Humidity 100    
Minimum Humidity 77    
Precipitation  
Precipitation 0.00 in - - ()
Sea Level Pressure  
Sea Level Pressure 30.09 in    
Wind  
Wind Speed 4 mph ()    
Max Wind Speed 8 mph    
Max Gust Speed -    
Visibility 2.7 miles    
Events Fog , Rain    
Averages and records for this station are not official NWS values.
T = Trace of Precipitation, MM = Missing Value Source: Averaged Metar Reports

Daily Weather History Graph

Daily Weather History Graph

Search for Another Location

Airport:

Trip Planner

Search our weather history database for the weather conditions in past years. The results will help you decide how hot, cold, wet, or windy it might be!

Date:

Astronomy

Jan. 06, 2014 Rise Set
Actual Time 7:29 AM CET 4:07 PM CET
Civil Twilight 6:54 AM CET 4:43 PM CET
Nautical Twilight 6:15 AM CET 5:21 PM CET
Astronomical Twilight 5:38 AM CET 5:59 PM CET
Moon 10:09 AM CET (1/6) 10:49 PM CET (1/6)
Length of Visible Light 9h 48m
Length of Day
8h 37m
Waxing Crescent, 32% of the Moon is Illuminated
Jan 6
Waxing Crescent
Jan 8
First Quarter
Jan 16
Full
Jan 24
Last Quarter
Jan 30
New

Hourly Weather History & Observations

Time (CET) Temp. Windchill Dew Point Humidity Pressure Visibility Wind Dir Wind Speed Gust Speed Precip Events Conditions
12:00 AM 46.4 °F 42.9 °F 46.4 °F 100% 29.98 in 6.2 mi NNW 6.9 mph - N/A Rain Light Rain
12:30 AM 44.6 °F 41.4 °F 44.6 °F 100% 29.98 in 6.2 mi NW 5.8 mph - N/A   Mostly Cloudy
1:00 AM 44.6 °F 41.4 °F 44.6 °F 100% 29.98 in 5.0 mi NNW 5.8 mph - N/A   Overcast
1:30 AM 44.6 °F 42.2 °F 44.6 °F 100% 29.98 in 3.7 mi NNW 4.6 mph - N/A Rain Light Rain
2:00 AM 44.6 °F 41.4 °F 44.6 °F 100% 30.01 in 3.1 mi NW 5.8 mph - N/A   Mostly Cloudy
2:30 AM 44.6 °F - 44.6 °F 100% 30.01 in 3.1 mi Variable 2.3 mph - N/A   Mostly Cloudy
3:00 AM 44.6 °F 41.4 °F 44.6 °F 100% 29.98 in 3.1 mi NNW 5.8 mph - N/A   Mostly Cloudy
3:30 AM 42.8 °F 40.1 °F 42.8 °F 100% 30.01 in 3.1 mi NW 4.6 mph - N/A   Mostly Cloudy
4:00 AM 44.6 °F 40.2 °F 44.6 °F 100% 30.01 in 2.8 mi NW 8.1 mph - N/A   Mostly Cloudy
4:30 AM 44.6 °F 43.1 °F 44.6 °F 100% 30.01 in 2.8 mi Variable 3.5 mph - N/A   Mostly Cloudy
5:00 AM 44.6 °F 41.4 °F 44.6 °F 100% 30.01 in 2.8 mi WNW 5.8 mph - N/A   Mostly Cloudy
5:30 AM 42.8 °F 40.1 °F 42.8 °F 100% 30.04 in 2.8 mi West 4.6 mph - N/A   Mostly Cloudy
6:00 AM 42.8 °F 40.1 °F 42.8 °F 100% 30.04 in 2.8 mi WSW 4.6 mph - N/A   Mostly Cloudy
6:30 AM 42.8 °F 40.1 °F 42.8 °F 100% 30.04 in 3.1 mi WNW 4.6 mph - N/A   Mostly Cloudy
7:00 AM 42.8 °F - 42.8 °F 100% 30.04 in 3.1 mi Variable 2.3 mph - N/A Fog Patches of Fog
7:30 AM 41.0 °F 36.4 °F 41.0 °F 100% 30.06 in 2.2 mi NW 6.9 mph - N/A Fog Patches of Fog
8:00 AM 41.0 °F 37.1 °F 41.0 °F 100% 30.09 in - WNW 5.8 mph - N/A   Mostly Cloudy
8:30 AM 41.0 °F 38.0 °F 41.0 °F 100% 30.09 in 1.7 mi NW 4.6 mph - N/A Fog Patches of Fog
9:00 AM 42.8 °F - 42.8 °F 100% 30.09 in 1.7 mi Variable 2.3 mph - N/A   Mist
9:30 AM 42.8 °F 41.1 °F 42.8 °F 100% 30.09 in 1.7 mi Variable 3.5 mph - N/A   Mist
10:00 AM 44.6 °F 43.1 °F 44.6 °F 100% 30.09 in - Variable 3.5 mph - N/A   Partly Cloudy
10:30 AM 44.6 °F - 44.6 °F 100% 30.09 in 2.2 mi Variable 2.3 mph - N/A   Partly Cloudy
11:00 AM 46.4 °F - 46.4 °F 100% 30.09 in 3.7 mi Variable 2.3 mph - N/A   Unknown
11:30 AM 48.2 °F - 48.2 °F 100% 30.09 in 5.0 mi Variable 3.5 mph - N/A   Unknown
12:00 PM 50.0 °F - 48.2 °F 94% 30.09 in 5.0 mi NW 4.6 mph - N/A   Unknown
12:30 PM 50.0 °F - 48.2 °F 94% 30.09 in - Variable 3.5 mph - N/A   Clear
1:00 PM 51.8 °F - 46.4 °F 82% 30.09 in - Variable 2.3 mph - N/A   Clear
1:30 PM 53.6 °F - 46.4 °F 77% 30.09 in - WSW 4.6 mph - N/A   Clear
2:00 PM 51.8 °F - 46.4 °F 82% 30.12 in - Variable 3.5 mph - N/A   Clear
2:30 PM 51.8 °F - 46.4 °F 82% 30.12 in - SSW 5.8 mph - N/A   Clear
3:00 PM 51.8 °F - 46.4 °F 82% 30.12 in - South 6.9 mph - N/A   Clear
3:30 PM 51.8 °F - 46.4 °F 82% 30.12 in - South 6.9 mph - N/A   Clear
4:00 PM 50.0 °F - 44.6 °F 82% 30.12 in - SSW 5.8 mph - N/A   Clear
4:30 PM 46.4 °F 45.2 °F 44.6 °F 93% 30.12 in - Variable 3.5 mph - N/A   Clear
5:00 PM 44.6 °F - 42.8 °F 93% 30.15 in - Calm Calm - N/A   Clear
5:30 PM 39.2 °F - 39.2 °F 100% 30.15 in - Variable 1.2 mph - N/A   Clear
6:00 PM 37.4 °F - 37.4 °F 100% 30.15 in 5.0 mi Variable 1.2 mph - N/A Fog Patches of Fog
6:30 PM 37.4 °F - 37.4 °F 100% 30.15 in 2.5 mi Variable 2.3 mph - N/A Fog Patches of Fog
7:00 PM 37.4 °F - 37.4 °F 100% 30.15 in 2.5 mi Variable 1.2 mph - N/A Fog Patches of Fog
7:30 PM 37.4 °F - 37.4 °F 100% 30.15 in 1.9 mi Variable 2.3 mph - N/A Fog Patches of Fog
8:00 PM 33.8 °F 30.8 °F 33.8 °F 100% 30.15 in 1.6 mi Variable 3.5 mph - N/A Fog Patches of Fog
8:30 PM 37.4 °F - 37.4 °F 100% 30.15 in 0.9 mi Variable 2.3 mph - N/A Fog Patches of Fog
9:00 PM 35.6 °F 32.8 °F 35.6 °F 100% 30.15 in 0.5 mi Variable 3.5 mph - N/A Fog Fog
9:30 PM 32.0 °F - 32.0 °F 100% 30.15 in 0.4 mi Calm Calm - N/A Fog Fog
10:00 PM 33.8 °F - 33.8 °F 100% 30.18 in 0.4 mi Variable 1.2 mph - N/A Fog Fog
10:30 PM 32.0 °F - 32.0 °F 100% 30.18 in 0.2 mi Variable 2.3 mph - N/A Fog Light Freezing Fog
11:00 PM 32.0 °F - 32.0 °F 100% 30.18 in 0.2 mi Variable 1.2 mph - N/A Fog Light Freezing Fog
11:30 PM 32.0 °F 28.7 °F 32.0 °F 100% 30.18 in 0.2 mi Variable 3.5 mph - N/A Fog Light Freezing Fog